星链-4430 (STARLINK-4430 )

导读 | 星芒AI

STARLINK-4430 是 SpaceX Starlink 项目中的一颗低轨通信卫星,属于第 18 批组网发射的“星链”卫星之一。该卫星运行在约 550 公里的近地轨道,旨在为全球用户提供高速互联网服务。它采用先进的相控阵天线和激光通信技术,支持高带宽、低延迟的网络连接。STARLINK-4430 的部署有助于扩大 Starlink 在偏远和网络覆盖不足地区的服务范围,提升全球互联网接入的普及率和稳定性。

基本信息
目录编号:
53485
目录名称:
STARLINK-4430
国际标识:
2022-099W
轨道中心:
EARTH
卫星名称:
星链-4430
卫星全名:
星链-4430 (STARLINK-4430 )
卫星状态:
在轨 (已飞行1181 天)
发射日期:
2022-08-12 UTC
国别 :
美国 (US)
星等 :
--
轨道信息
数据来源 国际轨道数据
星历时间: 2025-11-05T02:57:06+0800
9小时前
查看轨道信息
半长轴: 6941.152km
偏心率: 0.0001853
轨道倾角: 97.603°
近地点辐角 85.971°
升交点赤经 67.934°
平近点角 274.172°
近地点: 561.73km
远地点: 564.304km
周期: 95.920分钟
每日圈数: 15.012586
详细信息
固有亮度:
5
最大亮度:
2.5
卫星平台:
Starlink v1.5
覆盖范围:
全球
运营商:
太空探索技术公司
运营商所在国:
美国
制造商(研发单位):
太空探索技术公司
制造商所在国:
美国
使用方式:
暂无
卫星简介
星链(Starlink)计划是由太空探索技术公司(SpaceX)提出的一个巨型低轨卫星互联网星座项目,计划在2019年至2024年间在太空搭建由约1.2万颗卫星组成的“星链”网络,其中1584颗将部署在地球上空550千米处的近地轨道,并从2020年开始工作。该卫星仍在工作。
2D轨道图
3D轨道图
轨道高度分析图
轨道倾角分析图
轨道综合分析图
查看轨道综合分析图